Location: Great Falls
(47.5000°N, 111.3000°W)
Time: 01:47:46
(UTC-06:00)

Envisat - Visible Passes

Search period start: 22 October 2018 00:00
Search period end: 01 November 2018 00:00
Orbit: 764 x 766 km, 98.2° (Epoch: 22 October)

Date Brightness Start Highest point End Pass type
(mag) Time Alt. Az. Time Alt. Az. Time Alt. Az.
22 Oct 3.6 19:24:46 10° SE 19:29:20 35° ENE 19:33:54 10° N visible
22 Oct 4.5 21:03:43 10° SSW 21:08:20 35° W 21:12:59 10° NNW visible
23 Oct 4.4 18:49:32 10° ESE 18:52:57 19° ENE 18:56:24 10° NNE visible
23 Oct 3.2 20:26:22 10° S 20:31:26 72° WSW 20:36:33 10° NNW visible
24 Oct 3.0 19:49:47 10° SSE 19:54:44 56° ENE 19:59:43 10° N visible
24 Oct 5.3 21:30:18 10° SW 21:34:07 21° W 21:37:57 10° NW visible
25 Oct 3.8 19:13:56 10° ESE 19:18:14 29° ENE 19:22:33 10° N visible
25 Oct 4.1 20:52:16 10° S 20:57:05 43° W 21:01:56 10° NNW visible
26 Oct 2.9 20:15:09 10° SSE 20:20:15 88° W 20:25:22 10° NNW visible
26 Oct 5.9 21:57:54 10° WSW 22:00:01 12° W 22:02:07 10° WNW visible
27 Oct 3.2 19:38:47 10° SE 19:43:36 46° ENE 19:48:27 10° N visible
27 Oct 5.0 21:18:36 10° SSW 21:22:49 26° W 21:27:04 10° NW visible
28 Oct 4.1 19:03:09 10° ESE 19:07:09 24° ENE 19:11:10 10° N visible
28 Oct 3.7 20:40:54 10° S 20:45:51 53° W 20:50:51 10° NNW visible
29 Oct 2.9 20:04:00 10° SSE 20:09:04 75° ENE 20:14:10 10° N visible
29 Oct 5.7 21:45:40 10° SW 21:48:40 16° W 21:51:42 10° NW visible
30 Oct 3.5 19:27:50 10° SE 19:32:29 37° ENE 19:37:09 10° N visible
30 Oct 4.6 21:07:02 10° SSW 21:11:32 32° W 21:16:06 10° NNW visible
31 Oct 4.3 18:52:29 10° ESE 18:56:05 20° ENE 18:59:42 10° NNE visible
31 Oct 3.3 20:29:35 10° S 20:34:38 66° WSW 20:39:43 10° NNW visible
